Wind_Speed
72 61 52 46 41 42 45 49 52 51 48 48 44 43 45 47 44 46 60 78 90 85 84 85 84 84 84 82 79 76 71 69 69 70 67 64 66 65 63 59 61 60 61 61 61
75 66 54 47 42 43 47 49 54 53 51 52 48 45 43 48 50 46 46 52 66 84 92 87 86 87 83 81 79 76 72 74 72 72 69 65 63 63 62 61 61 61 63 64 63
78 67 57 48 43 44 47 51 54 60 58 54 52 51 48 48 54 53 49 47 45 58 70 84 87 87 83 79 78 76 74 74 72 68 66 64 60 59 59 60 62 62 61 60 60
80 66 59 49 45 43 47 53 56 58 64 57 58 57 53 50 51 58 54 50 48 45 50 61 72 78 83 85 81 77 77 75 72 69 67 65 62 62 59 60 61 62 59 58 59
79 68 58 52 45 44 46 52 57 60 64 67 62 60 58 55 54 57 60 55 53 49 46 45 55 66 73 80 82 80 80 77 76 74 72 71 68 63 63 63 64 62 60 57 55
80 70 60 52 47 44 45 49 57 62 64 70 71 66 62 62 59 55 62 63 58 54 50 48 46 53 64 72 75 80 81 79 76 74 74 73 70 67 67 67 64 61 58 57 55
84 74 64 56 47 43 42 47 52 62 66 68 72 73 67 71 66 59 59 65 64 59 56 52 48 45 52 63 68 71 76 77 74 71 71 68 66 70 66 64 60 59 57 54 51
87 78 69 58 49 44 42 42 49 57 67 69 71 73 73 81 69 70 67 62 64 65 58 57 51 45 44 53 62 66 68 68 69 68 68 67 70 66 63 60 58 57 55 52 49
91 85 75 63 55 49 44 43 47 56 64 70 73 73 73 85 80 75 72 66 65 66 66 58 56 50 46 46 55 61 62 67 69 68 66 64 66 62 58 57 56 55 50 48 46
94 88 78 70 63 55 47 43 45 48 62 69 74 77 79 83 85 84 76 72 69 67 68 66 59 56 50 45 50 60 66 66 68 68 65 62 63 59 56 55 53 51 48 46 44
99 90 80 74 68 63 57 50 49 48 54 70 75 82 84 85 83 85 86 80 74 72 71 72 62 58 62 59 57 61 64 66 66 65 62 60 59 57 55 54 53 49 47 45 45
99 91 84 76 71 66 63 60 64 58 55 59 70 76 87 88 89 88 88 85 81 75 77 73 68 66 68 62 57 60 62 64 63 62 60 60 59 57 53 53 49 47 48 46 46
99 91 85 79 72 69 68 69 73 75 65 58 63 71 85 91 94 92 89 90 90 84 78 75 76 74 68 67 59 60 62 62 60 59 59 60 59 54 53 50 48 48 48 48 45
99 92 87 80 74 73 71 74 78 81 75 67 63 66 82 90 97 100 97 93 90 90 85 77 77 78 70 68 64 60 65 62 59 62 62 60 59 54 53 52 48 47 49 47 44
99 93 85 81 75 71 65 66 68 73 71 66 68 69 78 85 93 100 107 108 100 93 90 83 82 84 77 73 73 70 72 68 66 65 62 59 58 56 54 51 49 47 47 46 41
100 93 86 82 72 62 58 58 57 64 57 54 66 77 81 86 92 100 105 110 106 107 98 86 85 83 82 79 77 73 77 71 66 64 60 61 57 57 54 53 50 48 46 45 42
101 94 88 78 69 61 54 51 46 47 44 46 61 74 85 91 93 103 105 105 105 108 103 99 89 85 86 86 80 77 78 75 68 66 60 63 59 59 57 55 51 50 48 44 41
101 96 87 74 67 57 48 43 35 36 36 39 52 66 76 89 92 100 109 108 107 104 103 103 101 94 89 90 84 85 84 77 71 67 65 70 58 60 61 59 55 51 48 45 42
101 95 83 72 64 54 43 39 38 36 38 39 48 60 73 82 89 97 104 108 109 106 103 103 101 101 97 99 97 90 86 82 77 74 71 70 61 64 63 61 58 54 51 49 44
102 92 77 70 59 50 42 40 40 38 40 40 46 52 66 78 85 93 99 104 107 108 107 104 106 104 102 101 102 94 95 91 82 76 72 70 66 63 65 64 60 58 54 52 48
100 88 75 66 55 48 43 41 36 35 36 38 48 50 59 71 82 87 92 101 106 109 108 105 105 106 108 101 99 100 92 89 84 78 74 70 69 67 67 67 64 59 57 54 52
98 84 72 63 53 47 44 40 35 33 33 35 40 49 52 62 75 83 86 90 102 108 108 105 104 105 108 105 105 106 98 95 89 81 78 75 74 70 70 70 66 63 60 58 55
94 80 71 59 51 47 41 37 35 31 30 30 37 45 50 54 62 74 79 82 90 105 109 107 106 103 105 102 108 108 100 93 88 84 79 76 73 72 71 72 71 67 63 61 59
89 78 68 56 51 45 40 35 33 27 26 28 35 42 45 47 53 62 74 78 81 90 107 110 105 102 97 90 101 104 101 94 90 85 81 78 76 78 75 73 72 69 66 63 62
85 75 64 54 49 43 39 32 27 23 24 27 30 36 41 44 49 56 65 71 76 82 93 107 104 103 100 97 104 108 108 105 96 88 86 81 79 82 79 75 71 70 70 68 65
81 73 62 52 46 40 34 27 24 21 23 27 28 33 36 38 42 45 53 65 72 77 82 89 102 106 102 98 103 108 109 106 98 92 87 83 81 80 77 75 73 73 73 71 68
78 70 58 52 45 38 31 25 20 21 22 25 26 30 35 39 42 47 52 60 67 70 73 78 84 99 108 102 101 104 101 100 99 95 90 85 86 88 81 79 77 76 73 72 71
Wind_Direction
337 332 323 309 292 273 261 257 257 258 259 260 263 261 255 249 244 240 234 236 234 235 240 241 240 240 241 241 243 245 245 247 247 249 249 249 249 251 254 254 255 257 258 259 262
337 332 323 314 294 275 264 254 252 248 256 255 257 253 260 252 247 242 241 238 235 238 236 238 242 241 241 241 242 244 246 247 247 248 248 249 251 253 255 256 257 258 260 262 264
337 330 323 312 300 279 266 255 250 248 243 251 250 249 255 251 248 244 244 240 240 238 236 238 238 239 241 240 243 243 243 244 245 245 247 248 249 252 255 256 256 259 261 262 263
336 331 322 313 299 284 266 257 249 245 245 237 247 246 251 248 248 244 242 244 242 241 240 236 236 237 239 239 240 241 241 243 243 244 246 248 249 252 254 256 255 256 258 260 265
336 330 324 313 301 286 271 261 252 245 241 241 232 243 247 247 248 243 241 242 244 243 244 242 238 236 237 235 236 239 241 242 243 245 246 247 249 253 254 254 250 254 257 259 261
336 331 323 314 302 291 275 262 254 247 241 239 235 230 239 242 244 244 242 240 242 244 243 243 242 238 236 236 235 236 238 240 241 242 244 246 248 249 250 248 250 253 253 255 261
336 331 325 316 304 293 282 265 256 248 244 239 236 236 226 239 243 243 241 242 239 240 243 242 244 241 237 234 234 235 236 237 238 239 242 242 242 240 243 242 243 247 253 254 252
336 333 327 318 309 299 287 273 257 251 245 241 238 231 229 233 233 240 241 241 240 236 238 240 239 240 240 236 233 233 234 235 235 235 235 237 236 237 234 236 241 244 245 247 250
337 332 327 319 312 305 295 283 264 251 246 241 239 236 232 234 232 232 237 239 239 238 235 236 238 236 238 240 235 232 230 231 232 232 233 231 233 231 231 235 237 239 240 241 244
335 332 326 321 315 308 298 286 273 258 246 240 238 235 230 235 235 231 230 232 237 239 238 234 235 237 236 240 234 228 225 226 228 230 229 230 231 229 229 230 233 234 236 239 246
335 330 326 321 314 308 301 291 276 260 249 243 238 234 232 231 232 235 233 234 230 234 234 235 229 234 231 230 230 228 227 226 229 230 229 228 229 225 225 227 230 234 237 243 250
334 330 324 319 313 306 298 292 282 270 256 245 243 238 234 231 229 231 232 233 229 229 232 229 230 230 231 232 230 229 229 227 227 227 225 222 222 222 223 226 230 235 240 245 252
334 328 322 317 312 303 298 289 282 277 269 253 243 237 238 231 227 228 231 233 232 229 230 228 225 227 229 231 231 228 226 224 223 222 220 219 220 220 224 227 231 238 242 248 253
333 327 322 316 310 303 294 283 276 272 269 261 249 235 235 235 229 226 226 230 231 231 229 227 225 226 227 230 229 229 224 219 219 219 218 218 218 220 227 230 232 238 243 249 253
332 327 321 315 309 300 292 281 275 271 268 259 253 241 233 235 228 229 227 227 230 230 229 227 224 225 222 225 224 220 219 217 219 221 218 222 218 224 228 233 233 238 244 248 253
331 326 322 318 312 302 291 284 278 267 266 255 245 244 236 231 229 229 230 228 228 231 230 226 227 225 225 224 224 221 219 215 220 222 218 225 218 230 228 235 236 238 243 248 252
331 328 326 321 310 305 298 289 280 274 261 246 235 232 233 231 224 227 229 229 230 230 230 229 227 227 225 226 221 220 220 216 217 223 221 227 221 232 232 233 237 239 243 248 252
331 330 327 320 314 312 305 294 286 270 252 237 232 228 227 228 226 223 225 226 226 228 227 226 226 225 224 227 223 218 220 219 221 222 222 226 221 229 233 233 233 238 244 249 250
332 331 327 320 318 314 306 296 283 269 255 238 230 224 221 224 226 221 222 224 225 227 225 224 222 225 226 222 222 218 219 220 220 222 222 224 223 229 232 235 235 237 242 248 251
333 330 327 324 320 315 309 298 287 275 261 242 233 226 223 220 223 224 220 221 223 225 227 225 222 221 221 222 222 219 218 220 220 219 222 222 224 231 232 234 237 238 242 247 251
333 330 327 327 322 316 311 300 289 274 262 247 235 227 222 220 222 223 222 219 220 223 224 224 223 221 219 223 222 221 220 222 221 221 220 221 225 232 233 235 237 240 243 248 251
332 331 329 329 323 317 311 301 288 274 260 251 238 229 226 222 221 222 222 219 219 220 224 225 225 222 222 221 221 222 220 220 219 219 221 221 227 232 233 235 237 239 243 248 252
332 331 331 329 323 319 310 300 286 275 260 250 238 229 225 222 221 221 222 220 219 219 221 224 224 225 224 221 219 219 220 221 222 221 222 223 227 234 236 236 238 239 242 247 251
332 332 332 329 323 318 309 299 289 275 259 243 235 228 224 224 222 220 220 220 218 219 220 223 224 224 226 223 219 219 220 222 222 221 222 223 226 232 235 237 238 241 243 246 250
333 333 333 329 324 317 310 301 290 273 254 239 233 228 221 222 219 218 218 218 217 217 219 221 222 223 223 221 218 217 217 219 220 221 222 224 226 231 233 237 239 242 244 246 249
333 333 333 329 324 317 311 300 287 267 248 238 227 220 219 218 219 218 218 215 216 218 219 221 220 221 222 222 219 218 219 220 221 221 222 224 228 234 236 239 241 242 244 247 251
334 334 332 329 325 318 312 302 280 261 241 229 220 218 220 217 213 211 211 215 217 218 219 220 219 219 220 222 221 221 221 222 223 223 225 226 231 231 233 237 240 243 246 248 251
Height
10633 10625 10617 10610 10605 10601 10600 10600 10601 10604 10606 10608 10610 10613 10616 10618 10620 10621 10625 10631 10637 10645 10651 10659 10667 10673 10680 10689 10696 10703 10714 10718 10719 10723 10729 10737 10742 10747 10752 10754 10758 10762 10765 10768 10771
10618 10610 10602 10596 10590 10585 10584 10584 10584 10586 10591 10594 10597 10599 10602 10605 10608 10612 10613 10617 10621 10628 10637 10643 10650 10656 10665 10672 10681 10690 10698 10699 10705 10711 10717 10725 10730 10736 10740 10742 10745 10748 10753 10757 10759
10605 10594 10586 10580 10574 10570 10567 10566 10568 10569 10572 10577 10582 10586 10588 10591 10595 10599 10601 10605 10608 10612 10618 10626 10634 10640 10648 10656 10666 10676 10681 10684 10692 10699 10705 10713 10718 10723 10727 10731 10731 10736 10741 10743 10746
10586 10579 10569 10563 10557 10552 10549 10548 10548 10552 10554 10558 10565 10570 10573 10577 10580 10585 10590 10593 10596 10601 10604 10609 10616 10623 10632 10641 10649 10659 10663 10670 10678 10687 10694 10700 10706 10711 10716 10718 10719 10725 10728 10731 10734
10568 10560 10552 10543 10538 10534 10530 10530 10528 10531 10535 10540 10544 10553 10557 10562 10563 10569 10574 10579 10582 10588 10592 10596 10600 10606 10615 10624 10634 10643 10648 10657 10665 10673 10680 10686 10693 10700 10702 10704 10706 10712 10715 10720 10722
10551 10542 10534 10526 10519 10516 10512 10510 10511 10512 10515 10519 10524 10531 10541 10544 10548 10554 10558 10563 10569 10575 10580 10583 10587 10593 10601 10610 10619 10626 10634 10642 10652 10659 10666 10673 10679 10688 10688 10690 10696 10700 10703 10707 10711
10534 10524 10514 10507 10502 10497 10494 10491 10491 10492 10495 10499 10505 10514 10521 10521 10531 10537 10541 10548 10553 10560 10566 10571 10576 10582 10588 10594 10604 10611 10620 10628 10637 10645 10652 10660 10667 10667 10678 10683 10684 10686 10692 10696 10699
10513 10502 10494 10487 10482 10479 10476 10473 10472 10472 10473 10477 10484 10494 10509 10497 10513 10518 10524 10531 10538 10545 10551 10558 10564 10572 10576 10583 10589 10597 10606 10616 10621 10628 10636 10646 10647 10656 10666 10669 10673 10678 10681 10685 10690
10490 10480 10471 10464 10461 10458 10456 10454 10451 10451 10453 10458 10463 10472 10483 10483 10489 10494 10508 10514 10522 10529 10536 10544 10553 10560 10565 10571 10577 10587 10596 10599 10605 10613 10624 10634 10633 10647 10654 10659 10663 10668 10673 10677 10681
10469 10458 10448 10440 10434 10432 10432 10431 10430 10431 10432 10435 10442 10449 10456 10455 10465 10477 10484 10496 10505 10512 10523 10532 10540 10549 10557 10562 10568 10568 10572 10581 10590 10601 10613 10622 10624 10637 10644 10650 10655 10659 10663 10669 10673
10449 10436 10425 10416 10409 10405 10404 10406 10404 10407 10410 10412 10415 10424 10432 10438 10446 10455 10465 10474 10485 10497 10507 10513 10526 10541 10536 10539 10548 10556 10564 10572 10580 10593 10605 10610 10618 10626 10634 10641 10645 10650 10655 10659 10663
10429 10414 10402 10394 10387 10380 10377 10374 10367 10375 10385 10391 10398 10405 10410 10417 10426 10432 10443 10453 10463 10475 10483 10499 10518 10514 10520 10530 10539 10547 10556 10563 10571 10582 10592 10600 10606 10618 10626 10631 10638 10643 10646 10651 10654
10407 10394 10381 10371 10365 10356 10351 10345 10336 10333 10348 10368 10372 10385 10384 10392 10403 10412 10421 10431 10443 10455 10468 10481 10492 10495 10509 10518 10529 10537 10545 10551 10560 10570 10582 10590 10598 10610 10616 10623 10630 10634 10638 10641 10645
10386 10373 10360 10348 10339 10329 10323 10313 10306 10298 10306 10333 10347 10358 10357 10363 10377 10389 10400 10408 10422 10435 10444 10462 10475 10484 10496 10509 10517 10525 10531 10537 10549 10558 10571 10581 10591 10601 10607 10613 10620 10625 10628 10632 10635
10363 10350 10337 10322 10315 10300 10292 10282 10275 10268 10273 10306 10314 10325 10333 10338 10358 10365 10372 10383 10399 10410 10422 10445 10450 10461 10478 10487 10496 10510 10513 10524 10536 10548 10562 10575 10584 10592 10599 10604 10609 10615 10619 10622 10625
10341 10325 10311 10296 10281 10271 10261 10253 10249 10242 10256 10276 10286 10287 10299 10311 10328 10334 10344 10359 10376 10386 10408 10422 10437 10451 10465 10469 10484 10494 10501 10513 10525 10539 10556 10564 10578 10582 10590 10591 10600 10605 10609 10612 10615
10316 10298 10282 10268 10250 10243 10235 10226 10226 10225 10230 10243 10248 10252 10261 10273 10294 10303 10315 10337 10353 10367 10390 10406 10419 10435 10446 10454 10470 10484 10491 10503 10514 10530 10552 10555 10569 10570 10578 10583 10589 10594 10598 10601 10606
10292 10274 10258 10241 10228 10219 10211 10206 10206 10204 10207 10213 10217 10224 10236 10241 10262 10278 10285 10305 10323 10342 10361 10378 10397 10415 10428 10441 10457 10465 10475 10492 10505 10521 10536 10538 10561 10561 10562 10570 10577 10584 10587 10591 10595
10270 10253 10237 10221 10207 10199 10194 10189 10186 10188 10187 10193 10195 10200 10208 10220 10235 10249 10267 10286 10303 10320 10337 10354 10374 10390 10404 10415 10426 10447 10461 10475 10489 10504 10520 10532 10548 10546 10551 10557 10566 10572 10577 10580 10584
10250 10234 10219 10202 10189 10181 10177 10173 10169 10168 10169 10175 10178 10183 10191 10200 10211 10222 10241 10265 10285 10301 10313 10331 10349 10366 10379 10393 10409 10430 10439 10452 10473 10494 10509 10523 10534 10538 10539 10545 10553 10560 10567 10570 10574
10234 10217 10201 10186 10174 10165 10161 10156 10153 10152 10153 10158 10161 10168 10172 10183 10193 10205 10220 10241 10258 10273 10288 10307 10324 10344 10359 10379 10401 10414 10433 10449 10466 10484 10499 10513 10522 10524 10528 10533 10541 10550 10554 10559 10563
10219 10201 10186 10172 10161 10152 10146 10141 10139 10138 10139 10143 10149 10154 10161 10168 10177 10188 10203 10222 10240 10253 10275 10291 10307 10324 10344 10362 10377 10395 10414 10424 10441 10469 10484 10498 10506 10509 10514 10519 10530 10536 10543 10547 10552
10203 10187 10173 10159 10149 10140 10134 10129 10125 10126 10127 10130 10135 10141 10149 10157 10167 10178 10191 10206 10221 10237 10255 10271 10286 10304 10320 10339 10357 10380 10403 10419 10438 10454 10474 10486 10500 10499 10504 10509 10515 10524 10531 10536 10539
10190 10173 10161 10148 10137 10129 10122 10118 10115 10116 10117 10119 10123 10130 10138 10148 10157 10167 10177 10189 10205 10221 10238 10249 10270 10293 10318 10348 10358 10376 10394 10409 10424 10439 10461 10476 10482 10483 10487 10494 10503 10513 10520 10524 10527
10179 10163 10150 10139 10128 10119 10113 10110 10108 10108 10107 10109 10114 10121 10130 10138 10145 10154 10164 10179 10192 10205 10216 10231 10258 10281 10299 10317 10332 10351 10363 10378 10400 10423 10439 10454 10462 10459 10471 10480 10493 10502 10506 10510 10515
10167 10153 10140 10130 10121 10112 10106 10103 10099 10099 10099 10100 10106 10115 10123 10130 10137 10148 10160 10169 10179 10190 10204 10221 10244 10264 10283 10300 10315 10332 10348 10368 10388 10406 10426 10442 10452 10452 10464 10473 10479 10484 10491 10498 10504
10157 10144 10132 10121 10112 10105 10100 10096 10093 10091 10093 10095 10101 10107 10115 10122 10129 10137 10147 10158 10168 10181 10196 10210 10230 10247 10266 10283 10299 10315 10346 10365 10380 10395 10413 10429 10430 10428 10446 10456 10462 10469 10478 10487 10491